Location: St. Louis
(38.6270°N, 90.1994°W)
Time: 16:30:39
(UTC-05:00)

ISS - Pass Details

Date: 20 April 2014
Orbit: 402 x 404 km, 51.6° (Epoch: 24 May)

Event Time Altitude Azimuth Distance (km) Brightness Sun altitude
Rises 21:38:13 0° 306° (NW) 2,340 2.1 -21.1°
Reaches altitude 10° 21:40:20 10° 303° (WNW) 1,470 0.7 -21.5°
Enters shadow 21:43:03 51° 269° (W) 515 -2.6 -21.9°
